When you browse on this site, cookies collect data to enhance your experience and personalize the content and advertising you see.
Visit our Privacy Policy to learn more. By continuing to use the site, you agree to this use of cookies and data.
  • In Hungary
  • List of Countries
  • For 7 days
  • Water Temperature
  • Weather Map
  • News
  • Weather Widgets
  • user-avatar
    Login

    Hourly Weather Internacionalnoe

    Today, 25 February, Tuesday

    Time Temperature Precipitation Wind Pressure Humidity
    00:00 0°C° 0.2 mm 5 mps 744 mmHg 98%
    01:00 -1°C° 0.7 mm 6 mps 743 mmHg 98%
    02:00 -1°C° 0.7 mm 7 mps 743 mmHg 97%
    03:00 -1°C° 0 mm 8 mps 742 mmHg 97%
    04:00 -1°C° 1 mm 8 mps 741 mmHg 97%
    05:00 -1°C° 1 mm 8 mps 741 mmHg 97%
    06:00 -1°C° 1 mm 7 mps 740 mmHg 97%
    07:00 -1°C° 1 mm 8 mps 739 mmHg 97%
    08:00 -1°C° 1 mm 8 mps 739 mmHg 97%
    09:00 -1°C° 0 mm 9 mps 738 mmHg 98%
    10:00 -1°C° 0.1 mm 8 mps 738 mmHg 96%
    11:00 -1°C° 0.1 mm 8 mps 738 mmHg 94%
    12:00 -1°C° 0.1 mm 7 mps 737 mmHg 92%
    13:00 -1°C° 0.1 mm 7 mps 737 mmHg 94%
    14:00 -2°C° 0.1 mm 6 mps 737 mmHg 95%
    15:00 -1°C° 0 mm 5 mps 737 mmHg 97%
    16:00 -1°C° 0 mm 4 mps 737 mmHg 97%
    17:00 -1°C° 0 mm 4 mps 738 mmHg 97%
    18:00 -1°C° 0 mm 4 mps 738 mmHg 97%
    19:00 -2°C° 0.2 mm 6 mps 739 mmHg 94%
    20:00 -2°C° 0.2 mm 8 mps 740 mmHg 91%
    21:00 -4°C° 0.2 mm 10 mps 741 mmHg 88%
    22:00 -4°C° 0 mm 10 mps 742 mmHg 84%
    23:00 -4°C° 0 mm 10 mps 743 mmHg 80%

    Tomorrow, 26 February, Wednesday

    Time Temperature Precipitation Wind Pressure Humidity
    00:00 -4°C° 0 mm 10 mps 743 mmHg 75%
    01:00 -5°C° 0 mm 9 mps 744 mmHg 75%
    02:00 -6°C° 0 mm 9 mps 745 mmHg 74%
    03:00 -6°C° 0 mm 8 mps 746 mmHg 73%
    04:00 -6°C° 0 mm 7 mps 747 mmHg 74%
    05:00 -6°C° 0 mm 7 mps 748 mmHg 75%
    06:00 -5°C° 0 mm 6 mps 748 mmHg 76%
    07:00 -5°C° 0 mm 6 mps 749 mmHg 75%
    08:00 -5°C° 0 mm 5 mps 749 mmHg 75%
    09:00 -5°C° 0 mm 5 mps 750 mmHg 75%
    10:00 -4°C° 0 mm 5 mps 750 mmHg 72%
    11:00 -2°C° 0 mm 5 mps 750 mmHg 70%
    12:00 -1°C° 0 mm 5 mps 751 mmHg 67%
    13:00 0°C° 0 mm 4 mps 751 mmHg 68%
    14:00 0°C° 0 mm 4 mps 751 mmHg 68%
    15:00 +1°C° 0 mm 4 mps 751 mmHg 68%
    16:00 0°C° 0 mm 4 mps 751 mmHg 74%
    17:00 -1°C° 0 mm 4 mps 751 mmHg 80%
    18:00 -1°C° 0 mm 4 mps 751 mmHg 86%
    19:00 -1°C° 0 mm 4 mps 751 mmHg 87%
    20:00 -1°C° 0 mm 4 mps 751 mmHg 88%
    21:00 -1°C° 0 mm 5 mps 751 mmHg 90%
    22:00 -1°C° 0 mm 5 mps 751 mmHg 89%
    23:00 -1°C° 0 mm 6 mps 750 mmHg 88%

    Day after tomorrow, 27 February, Thursday

    Time Temperature Precipitation Wind Pressure Humidity
    00:00 -1°C° 0 mm 6 mps 750 mmHg 87%
    01:00 -1°C° 0 mm 6 mps 750 mmHg 85%
    02:00 -1°C° 0 mm 6 mps 750 mmHg 82%
    03:00 -1°C° 0 mm 6 mps 750 mmHg 80%
    04:00 -1°C° 0 mm 6 mps 750 mmHg 78%
    05:00 -2°C° 0 mm 6 mps 750 mmHg 76%
    06:00 -2°C° 0 mm 7 mps 749 mmHg 74%
    07:00 -1°C° 0 mm 7 mps 750 mmHg 72%
    08:00 -1°C° 0 mm 7 mps 750 mmHg 70%
    09:00 -1°C° 0 mm 7 mps 750 mmHg 68%
    10:00 0°C° 0 mm 7 mps 750 mmHg 67%
    11:00 +1°C° 0 mm 8 mps 750 mmHg 66%
    12:00 +2°C° 0 mm 8 mps 750 mmHg 65%
    13:00 +2°C° 0 mm 8 mps 749 mmHg 67%
    14:00 +3°C° 0 mm 7 mps 749 mmHg 68%
    15:00 +4°C° 0 mm 7 mps 748 mmHg 70%
    16:00 +3°C° 0 mm 7 mps 748 mmHg 71%
    17:00 +3°C° 0 mm 7 mps 748 mmHg 73%
    18:00 +2°C° 0 mm 7 mps 748 mmHg 75%
    19:00 +2°C° 0 mm 7 mps 748 mmHg 77%
    20:00 +2°C° 0 mm 7 mps 748 mmHg 79%
    21:00 +2°C° 0 mm 7 mps 748 mmHg 80%
    22:00 +2°C° 0 mm 7 mps 748 mmHg 82%
    23:00 +2°C° 0 mm 7 mps 748 mmHg 83%

    28 February, Friday

    Time Temperature Precipitation Wind Pressure Humidity
    00:00 +2°C° 0 mm 6 mps 747 mmHg 84%
    01:00 +2°C° 0 mm 6 mps 747 mmHg 86%
    02:00 +1°C° 0 mm 6 mps 747 mmHg 87%
    03:00 +1°C° 0 mm 6 mps 747 mmHg 88%
    04:00 +1°C° 0 mm 6 mps 747 mmHg 89%
    05:00 +1°C° 0 mm 6 mps 747 mmHg 90%
    06:00 +1°C° 0 mm 6 mps 747 mmHg 91%
    07:00 +1°C° 0 mm 6 mps 747 mmHg 91%
    08:00 +2°C° 0 mm 6 mps 747 mmHg 91%
    09:00 +2°C° 0 mm 7 mps 747 mmHg 90%
    10:00 +3°C° 0 mm 7 mps 747 mmHg 88%
    11:00 +4°C° 0 mm 7 mps 747 mmHg 86%
    12:00 +4°C° 0 mm 7 mps 747 mmHg 84%
    13:00 +5°C° 0 mm 7 mps 746 mmHg 80%
    14:00 +5°C° 0 mm 8 mps 746 mmHg 76%
    15:00 +5°C° 0 mm 8 mps 746 mmHg 72%
    16:00 +4°C° 0 mm 7 mps 745 mmHg 70%
    17:00 +4°C° 0 mm 7 mps 745 mmHg 69%
    18:00 +3°C° 0 mm 6 mps 745 mmHg 67%
    19:00 +3°C° 0.3 mm 6 mps 745 mmHg 71%
    20:00 +2°C° 0.3 mm 6 mps 745 mmHg 76%
    21:00 +2°C° 0.3 mm 6 mps 745 mmHg 80%
    22:00 +2°C° 0.2 mm 6 mps 745 mmHg 81%
    23:00 +1°C° 0.2 mm 6 mps 745 mmHg 83%

    29 February, Saturday

    Time Temperature Precipitation Wind Pressure Humidity
    00:00 +1°C° 0.2 mm 6 mps 745 mmHg 84%
    01:00 +1°C° 0 mm 6 mps 746 mmHg 83%
    02:00 -1°C° 0 mm 7 mps 746 mmHg 81%
    03:00 -1°C° 0 mm 8 mps 747 mmHg 80%
    04:00 -2°C° 0 mm 6 mps 747 mmHg 80%
    05:00 -1°C° 0 mm 5 mps 748 mmHg 80%
    06:00 -2°C° 0 mm 4 mps 749 mmHg 79%
    07:00 -1°C° 0 mm 4 mps 749 mmHg 78%
    08:00 -1°C° 0 mm 4 mps 750 mmHg 77%
    09:00 -1°C° 0 mm 4 mps 750 mmHg 76%
    10:00 +1°C° 0 mm 3 mps 751 mmHg 70%
    11:00 +2°C° 0 mm 3 mps 751 mmHg 65%
    12:00 +3°C° 0 mm 3 mps 751 mmHg 59%
    13:00 +4°C° 0 mm 3 mps 751 mmHg 57%
    14:00 +4°C° 0 mm 3 mps 751 mmHg 55%
    15:00 +5°C° 0 mm 2 mps 752 mmHg 53%
    16:00 +4°C° 0 mm 2 mps 752 mmHg 58%
    17:00 +4°C° 0 mm 1 mps 752 mmHg 62%
    18:00 +3°C° 0 mm 1 mps 752 mmHg 67%
    19:00 +3°C° 0 mm 1 mps 752 mmHg 68%
    20:00 +3°C° 0 mm 1 mps 753 mmHg 70%
    21:00 +2°C° 0 mm 1 mps 753 mmHg 72%
    22:00 +2°C° 0 mm 1 mps 753 mmHg 74%
    23:00 +2°C° 0 mm 1 mps 753 mmHg 76%

    1 March, Sunday

    Time Temperature Precipitation Wind Pressure Humidity
    00:00 +2°C° 0 mm 1 mps 753 mmHg 77%
    01:00 -1°C° 0 mm 2 mps 753 mmHg 78%
    02:00 -1°C° 0 mm 2 mps 754 mmHg 79%
    03:00 -1°C° 0 mm 2 mps 754 mmHg 81%
    04:00 -1°C° 0 mm 2 mps 754 mmHg 81%
    05:00 -1°C° 0 mm 2 mps 754 mmHg 82%
    06:00 -1°C° 0 mm 2 mps 754 mmHg 83%
    07:00 -1°C° 0 mm 2 mps 754 mmHg 79%
    08:00 +1°C° 0 mm 2 mps 755 mmHg 76%
    09:00 +1°C° 0 mm 2 mps 755 mmHg 73%
    10:00 +2°C° 0 mm 2 mps 755 mmHg 67%
    11:00 +3°C° 0 mm 2 mps 755 mmHg 62%
    12:00 +3°C° 0 mm 3 mps 756 mmHg 57%
    13:00 +3°C° 0 mm 3 mps 755 mmHg 58%
    14:00 +3°C° 0 mm 3 mps 755 mmHg 58%
    15:00 +3°C° 0 mm 4 mps 755 mmHg 59%
    16:00 +2°C° 0 mm 3 mps 755 mmHg 64%
    17:00 +1°C° 0 mm 3 mps 756 mmHg 69%
    18:00 0°C° 0 mm 3 mps 756 mmHg 75%
    19:00 0°C° 0 mm 3 mps 756 mmHg 78%
    20:00 -1°C° 0 mm 3 mps 757 mmHg 81%
    21:00 -1°C° 0 mm 2 mps 757 mmHg 85%
    22:00 -2°C° 0 mm 2 mps 757 mmHg 85%
    23:00 -2°C° 0 mm 2 mps 757 mmHg 85%
    Show more